Simultaneous Nadir Overpasses (SNOs) Predictions

Prediction of SNOs between GOES-17 and METOP-B Satellite Orbit:

Table of predicted SNOs for the next 14.0 days since TLE Epoch: 5/16/2025
Index Date Time (GOES-17) GOES-17 Lat,Lon METOP-B Lat,Lon Distance(km) Time Diff (sec)
1 05/17/2025 04:02:11 -0.03,-104.37 0.04,-103.96 46.59 80
2 05/18/2025 16:21:03 0.02,-104.44 0.92,-108.55 468.36 80
3 05/19/2025 16:03:04 0.02,-104.44 -0.18,-103.57 99.44 80
4 05/21/2025 04:22:04 -0.01,-104.37 -0.86,-108.18 434.52 80
5 05/22/2025 03:58:45 -0.01,-104.37 0.25,-103.20 133.37 80
6 05/23/2025 16:17:36 0.01,-104.44 0.76,-107.78 381.25 80
7 05/24/2025 15:59:36 0.01,-104.44 -0.35,-102.80 186.62 80
8 05/26/2025 04:18:37 -0.01,-104.37 -0.68,-107.42 347.51 80
9 05/27/2025 03:55:17 -0.00,-104.36 0.44,-102.43 219.95 80
10 05/28/2025 16:14:09 -0.00,-104.42 0.57,-107.02 295.46 80
11 05/29/2025 15:56:09 -0.01,-104.42 -0.54,-102.03 272.21 80
